Weather Roundup
Issued by NWS

Home | Current Version | Previous Version | Graphics & Text | Print | Product List | Glossary Off
Versions: 1 2 3 4 5 6 7 8 9 10 11 12 13 14 15 16 17 18 19 20 21 22 23 24 25 26 27 28 29 30 31 32 33 34 35 36 37 38 39 40 41 42 43 44 45 46 47 48 49 50

000
NZUS93 KARX 221359
HRRWXR

CURRENT HOURLY OBSERVATIONS ACROSS
MUCH OF THE UPPER MISSISSIPPI VALLEY
NATIONAL WEATHER SERVICE LA CROSSE WI
900 AM CDT FRI MAY 22 2015


...SOUTHEAST MINNESOTA...


CITY           SKY/WX    TMP DP  RH WIND       PRES   REMARKS
ROCHESTER      SUNNY     60  39  45 CALM      30.21R
ROCHESTER/MAYO FAIR      56  37  47 CALM      30.19S
WINONA         SUNNY     55  45  67 CALM      30.19F
AUSTIN         SUNNY     61  43  51 CALM      30.19S
ALBERT LEA     SUNNY     61  41  48 CALM      30.20R
DODGE CENTER   SUNNY     61  37  41 CALM      30.19S
PRESTON        SUNNY     57  38  48 CALM      30.20R
OWATONNA       SUNNY     61  37  41 E3        30.20R
FARIBAULT      SUNNY     61  43  51 CALM      30.20S
$$

...ELSEWHERE IN MINNESOTA...


CITY           SKY/WX    TMP DP  RH WIND       PRES   REMARKS
MINNEAPOLIS    SUNNY     60  39  45 NE5       30.20F
INTNL FALLS    SUNNY     56  33  42 S3        30.18F
DULUTH         SUNNY     57  30  35 SW5       30.21R
RED WING       SUNNY     59  39  47 CALM      30.19S
REDWOOD FALLS  SUNNY     57  42  57 NE5       30.20S
MANKATO        SUNNY     59  37  44 CALM      30.21R
WORTHINGTON    SUNNY     63  37  39 E3        30.21S
FAIRMONT       SUNNY     63  36  36 CALM      30.21R
$$

...SOUTHWEST WISCONSIN...


CITY           SKY/WX    TMP DP  RH WIND       PRES   REMARKS
LA CROSSE      SUNNY     58  44  60 E3        30.19S
PRAIRIE DU CHI SUNNY     54  44  70 E5        30.19S
BOSCOBEL       SUNNY     59  39  47 VRB3      30.20F
LONE ROCK      NOT AVBL
PLATTEVILLE    SUNNY     56  38  50 E9        30.19S
FORT MC COY    SUNNY     56  39  54 CALM      30.21R
VIROQUA        FAIR      56  38  50 SE10      30.20S
WIS DELLS      SUNNY     53  33  46 SE5       30.21S
$$

...ELSEWHERE IN WISCONSIN...


CITY           SKY/WX    TMP DP  RH WIND       PRES   REMARKS
MILWAUKEE      SUNNY     52  34  50 NE10      30.23R
MADISON        SUNNY     56  31  38 SE7       30.21R
GREEN BAY      SUNNY     54  26  34 NE3       30.23R
EAU CLAIRE       N/A     57  36  45 NE6       30.21R
BLACK RVR FLS  FAIR      53  39  58 CALM      30.21R
MEDFORD        SUNNY     52  36  55 S6        30.21R
WAUSAU         SUNNY     53  32  44 SW5       30.21R
WIS RAPIDS     SUNNY     56  28  34 S5        30.24R
MARSHFIELD     SUNNY     55  33  43 S8        30.22R
RICE LAKE      SUNNY     53  39  59 CALM      30.23R
$$

...NORTHEAST IOWA...


CITY           SKY/WX    TMP DP  RH WIND       PRES   REMARKS
DECORAH        SUNNY     55  39  54 CALM      30.18S
MASON CITY     SUNNY     62  39  42 CALM      30.21R
CHARLES CITY   SUNNY     59  39  47 CALM      30.20R
OELWEIN        SUNNY     61  43  51 CALM      30.19S
$$

...ELSEWHERE IN IOWA...


CITY           SKY/WX    TMP DP  RH WIND       PRES   REMARKS
DES MOINES     CLOUDY    62  45  53 NW5       30.21R
IOWA CITY      SUNNY     63  43  48 NE3       30.20R
FORT DODGE     SUNNY     59  43  55 N3        30.21S
$$

...NORTHERN ILLINOIS...


CITY           SKY/WX    TMP DP  RH WIND       PRES   REMARKS
CHICAGO-OHARE  SUNNY     57  37  47 NE9       30.19R
CHICAGO-MIDWAY SUNNY     59  44  57 E8        30.19R
MOLINE         SUNNY     62  42  47 CALM      30.18R
ROCKFORD       SUNNY     59  35  40 E7        30.22R
PEORIA         SUNNY     64  46  52 CALM      30.19R
$$

NOTE: "FAIR" INDICATES FEW OR NO CLOUDS BELOW 12,000 FEET WITH NO
SIGNIFICANT WEATHER AND/OR OBSTRUCTIONS TO VISIBILITY. WIND
SPEEDS ARE IN MILES-PER-HOUR.



USA.gov is the U.S. government's official web portal to all federal, state and local government web resources and services.